Zurück zum Katalog

ONEWEB-0569

AktivKommunikationPO
NORAD 55148·PAYLOAD·🇬🇧 United Kingdom

Gestartet Jan 10, 2023 von Cape Canaveral Space Force Station

Loading…

Nächste Überflüge (nächste 24 Stunden)

TLE

AktuellSource: CelesTrak SupGP

Epoche: Sep 14, 2026, 23:34 UTC

1 55148C 23004J   26257.98208750  .00003472  00000+0  95186-2 0  2576
2 55148  87.8919 302.3616 0001598  69.9767 328.9953 13.13463694    15

Verfolge ONEWEB-0569 in Echtzeit mit AllMySat

Download on the App Store